CAPE
108 76 114 213 279 216 483 465 518 625 361 68 0 0 0 0 0 0 0 0 14 3 1 91 167 217 143 1 3 6 59 138 234
10 33 46 68 149 212 326 393 361 594 530 61 0 0 0 0 0 0 0 0 1 0 0 34 119 173 168 20 4 8 30 97 152
6 10 10 18 82 168 231 384 350 346 348 196 78 0 0 0 0 0 0 0 0 1 0 4 82 138 140 116 46 3 3 129 169
1 3 6 2 1 18 142 233 316 294 275 266 46 0 0 0 0 0 0 0 0 0 0 2 56 114 131 118 99 94 16 95 146
0 0 1 2 1 5 3 23 97 183 228 199 59 2 0 0 0 0 0 0 7 5 5 5 40 85 46 4 12 73 78 55 139
0 0 0 0 0 2 2 2 1 18 73 47 12 0 0 0 0 0 0 0 11 32 10 7 33 65 38 9 3 80 67 77 36
0 0 0 0 0 0 0 0 0 0 0 0 0 0 0 0 0 0 0 15 0 44 22 18 21 52 46 32 35 79 56 59 66
0 0 0 0 0 0 0 0 0 0 0 0 0 0 0 0 0 0 0 43 0 35 74 37 45 37 31 30 18 0 39 44 4
0 0 0 0 0 0 0 0 0 0 0 0 0 0 0 0 0 0 0 22 26 52 75 73 88 49 31 15 20 12 22 0 0
0 0 0 0 0 0 0 0 0 0 0 0 0 0 0 0 0 0 0 0 49 35 49 116 104 86 62 18 8 15 11 12 0
0 0 0 0 0 0 0 0 0 0 0 0 0 0 0 0 0 0 0 0 0 118 42 113 99 92 89 36 12 6 16 13 10
0 0 0 0 0 0 0 0 0 0 0 0 0 0 0 0 0 0 0 0 0 0 58 237 159 123 100 83 28 11 0 20 22
0 0 0 0 0 0 0 0 0 0 0 0 0 0 0 0 0 0 0 0 0 0 0 167 378 190 121 95 78 25 25 19 18
0 0 0 0 0 0 0 0 0 0 0 0 0 0 0 0 0 0 0 0 0 0 0 0 25 138 187 135 80 65 19 42 28
0 0 0 0 0 0 0 0 0 0 0 0 0 0 0 0 0 0 0 0 0 0 0 0 0 29 96 212 96 60 57 34 40
0 0 0 0 0 0 0 0 0 0 0 0 0 0 0 0 0 0 0 0 0 0 0 0 0 0 9 58 146 137 78 66 37
0 0 0 0 0 0 0 0 0 0 0 0 0 0 0 0 0 0 0 0 0 0 0 0 0 0 0 0 14 96 210 98 48
0 0 0 0 0 0 0 0 0 0 0 0 0 0 0 0 0 0 0 0 0 0 0 0 0 0 0 0 0 0 25 169 94
0 0 0 0 0 0 0 0 0 0 0 0 0 0 0 0 0 0 0 0 0 0 0 0 0 0 0 0 0 0 0 78 76
0 0 0 0 0 0 0 0 0 0 0 0 0 0 0 0 0 0 0 0 0 0 0 0 0 0 0 0 0 0 0 15 46
CIN
-44 -71 -13 -1 -22 -43 -3 -0 -0 -0 -2 -43 -0 -0 -0 -0 -0 -0 -0 -0 -0 -0 -0 -82 -39 -10 -26 -0 -0 -0 -49 -19 -0
-1 -100 -73 -38 -4 -29 -11 -0 -0 -0 -0 -21 -0 -0 -0 -0 -0 -0 -0 -0 -0 -0 -0 -10 -70 -33 -20 -24 -0 -0 -47 -35 -27
-0 -0 -0 -45 -25 -0 -21 -3 -2 -3 -2 -0 -6 -0 -0 -0 -0 -0 -0 -0 -0 -0 -0 -0 -55 -58 -44 -42 -37 -0 -0 -31 -26
-0 -0 -0 -0 -0 -42 -10 -12 -14 -8 -5 -4 -48 -0 -0 -0 -0 -0 -0 -0 -0 -0 -0 -0 -19 -31 -95 -80 -81 -51 -0 -15 -30
-0 -0 -0 -0 -0 -0 -0 -98 -63 -25 -11 -14 -59 -17 -0 -0 -0 -0 -0 -0 -1 -1 -0 -0 -0 -30 -0 -0 -3 -111 -81 -0 -33
-0 -0 -0 -0 -0 -0 -0 -0 -0 -194 -72 -44 -11 -0 -0 -0 -0 -0 -0 -0 -0 -0 -2 -1 -35 -0 -0 -0 -0 -130 -109 -102 -0
-0 -0 -0 -0 -0 -0 -0 -0 -0 -0 -0 -0 -0 -0 -0 -0 -0 -0 -0 -2 -0 -0 -0 -1 -0 -65 -0 -0 -26 -150 -134 -138 -104
-0 -0 -0 -0 -0 -0 -0 -0 -0 -0 -0 -0 -0 -0 -0 -0 -0 -0 -0 -6 -0 -0 -0 -0 -0 -106 -0 -0 -7 -0 -198 -185 -13
-0 -0 -0 -0 -0 -0 -0 -0 -0 -0 -0 -0 -0 -0 -0 -0 -0 -0 -0 -40 -8 -4 -1 -1 -0 -0 -0 -5 -1 -12 -6 -0 -0
-0 -0 -0 -0 -0 -0 -0 -0 -0 -0 -0 -0 -0 -0 -0 -0 -0 -0 -0 -0 -43 -21 -8 -18 -0 -0 -0 -2 -7 -6 -9 -3 -0
-0 -0 -0 -0 -0 -0 -0 -0 -0 -0 -0 -0 -0 -0 -0 -0 -0 -0 -0 -0 -0 -25 -64 -68 -22 -0 -0 -0 -13 -14 -8 -3 -0
-0 -0 -0 -0 -0 -0 -0 -0 -0 -0 -0 -0 -0 -0 -0 -0 -0 -0 -0 -0 -0 -0 -34 -18 -36 -51 -0 -0 -4 -16 -0 -4 -0
-0 -0 -0 -0 -0 -0 -0 -0 -0 -0 -0 -0 -0 -0 -0 -0 -0 -0 -0 -0 -0 -0 -0 -19 -2 -34 -75 -0 -0 -7 -9 -4 -0
-0 -0 -0 -0 -0 -0 -0 -0 -0 -0 -0 -0 -0 -0 -0 -0 -0 -0 -0 -0 -0 -0 -0 -0 -48 -48 -37 -79 -0 -0 -7 -0 -1
-0 -0 -0 -0 -0 -0 -0 -0 -0 -0 -0 -0 -0 -0 -0 -0 -0 -0 -0 -0 -0 -0 -0 -0 -0 -137 -65 -32 -40 -0 -0 -1 -0
-0 -0 -0 -0 -0 -0 -0 -0 -0 -0 -0 -0 -0 -0 -0 -0 -0 -0 -0 -0 -0 -0 -0 -0 -0 -0 -41 -94 -69 -85 -1 -3 -5
-0 -0 -0 -0 -0 -0 -0 -0 -0 -0 -0 -0 -0 -0 -0 -0 -0 -0 -0 -0 -0 -0 -0 -0 -0 -0 -0 -0 -24 -73 -58 -0 -0
-0 -0 -0 -0 -0 -0 -0 -0 -0 -0 -0 -0 -0 -0 -0 -0 -0 -0 -0 -0 -0 -0 -0 -0 -0 -0 -0 -0 -0 -0 -7 -90 -0
-0 -0 -0 -0 -0 -0 -0 -0 -0 -0 -0 -0 -0 -0 -0 -0 -0 -0 -0 -0 -0 -0 -0 -0 -0 -0 -0 -0 -0 -0 -0 -133 -1
-0 -0 -0 -0 -0 -0 -0 -0 -0 -0 -0 -0 -0 -0 -0 -0 -0 -0 -0 -0 -0 -0 -0 -0 -0 -0 -0 -0 -0 -0 -0 -19 -4
Wind_Speed
12 12 14 13 7 2 10 10 10 10 10 13 12 10 9 8 6 5 4 4 12 12 11 11 11 13 14 14 13 14 14 14 15
13 11 11 11 13 6 6 9 9 8 8 10 12 9 7 4 4 5 4 3 11 11 10 10 10 12 14 15 13 14 14 14 14
14 12 12 11 11 10 2 8 9 8 7 8 7 7 7 3 3 4 3 5 7 9 9 10 10 11 13 14 14 13 12 13 14
13 14 12 11 12 13 12 2 7 7 7 6 5 6 4 3 2 2 2 5 5 5 7 8 8 11 12 13 14 13 12 12 13
15 14 14 13 12 13 12 11 10 5 4 4 5 5 3 1 0 1 1 4 5 8 7 6 7 10 11 11 12 14 13 12 13
9 13 13 14 12 13 12 13 13 10 4 3 7 6 2 1 2 3 5 2 6 6 6 5 9 8 9 10 10 12 13 12 12
8 10 13 13 14 13 14 15 13 9 4 2 5 3 3 1 2 2 8 6 4 4 5 4 9 9 7 8 10 10 12 12 12
5 5 5 6 12 6 9 8 5 6 4 4 2 1 3 2 1 3 5 8 4 3 4 4 6 9 9 6 8 9 10 11 11
6 5 6 6 6 7 6 5 6 6 6 5 5 1 3 2 2 4 6 7 6 6 5 5 6 8 10 9 5 8 8 10 10
5 5 5 5 6 6 6 5 5 6 6 6 6 5 4 4 3 3 8 9 7 9 7 7 8 8 9 9 7 6 7 7 8
5 5 5 5 5 6 5 5 5 5 5 5 6 6 6 4 5 3 4 8 8 8 11 11 11 11 11 10 9 8 6 7 6
5 5 5 5 5 6 5 6 4 4 4 4 5 5 5 5 4 4 4 4 7 8 12 11 13 13 13 11 10 8 8 7 7
5 5 5 5 5 5 5 4 5 4 4 4 4 4 5 6 4 4 4 4 4 6 10 10 10 12 13 12 11 9 8 9 9
5 5 5 5 4 5 4 3 3 3 5 6 5 3 4 6 5 5 5 6 5 4 5 9 8 9 13 14 13 12 10 10 10
5 4 4 4 3 4 5 4 3 2 5 7 7 6 6 5 5 6 6 6 6 6 6 4 4 9 12 13 14 15 14 12 11
5 4 4 4 4 4 5 3 4 3 5 4 4 4 6 7 6 5 7 7 8 7 6 5 4 4 11 12 12 14 16 16 13
5 4 4 5 4 6 5 5 3 3 5 3 2 4 5 4 4 5 5 7 4 7 8 8 7 6 5 8 12 12 15 19 17
5 5 4 4 3 3 4 4 6 3 3 5 0 2 2 4 4 5 3 4 4 4 6 8 9 8 7 7 10 13 13 15 19
4 4 4 4 3 4 4 5 3 3 3 3 4 1 0 2 6 4 4 6 6 3 2 5 8 9 8 9 10 12 13 16 19
4 4 4 3 2 3 4 4 4 2 2 1 3 2 2 3 3 4 6 6 4 7 6 6 6 8 8 8 10 15 17 19 20
Wind_Direction
68 71 55 40 15 122 146 147 149 150 142 134 140 128 111 101 98 65 55 75 84 76 70 60 68 87 88 78 77 72 64 56 52
51 53 59 44 38 17 161 145 162 161 145 134 143 140 123 110 109 100 78 55 88 86 83 70 68 81 84 86 78 75 71 68 65
46 45 47 39 34 33 327 162 169 176 158 138 132 156 140 111 91 90 92 79 82 90 92 88 82 80 82 83 84 82 74 67 74
44 42 43 38 42 37 31 260 178 182 178 145 120 137 131 116 92 44 56 116 83 99 108 106 93 88 81 82 83 81 82 68 75
39 35 34 24 39 39 40 35 35 182 184 170 150 83 78 12 332 348 272 141 92 128 128 120 115 99 94 87 86 87 79 78 68
32 34 30 28 30 41 38 39 29 16 125 132 94 87 58 336 314 314 289 227 129 142 131 130 139 121 109 100 92 88 88 78 78
28 35 28 21 18 24 31 33 30 38 23 6 115 134 118 83 294 287 297 290 178 155 150 158 147 138 129 121 109 99 94 89 77
21 16 17 12 15 12 8 11 25 9 27 14 338 170 161 185 209 266 269 287 219 191 180 190 169 151 142 136 124 114 103 97 90
25 24 11 17 5 5 14 4 355 5 13 13 350 242 269 234 213 216 238 254 254 226 210 211 198 176 158 152 146 129 124 115 107
33 17 19 20 7 5 0 5 4 356 356 2 358 338 256 257 268 230 220 224 231 221 222 219 216 199 180 165 164 153 140 132 126
34 34 20 19 4 1 355 356 358 350 347 348 351 330 325 246 233 231 250 237 238 237 218 208 219 215 201 183 177 172 160 149 145
28 32 31 10 360 359 5 1 347 2 343 335 332 316 327 328 263 232 230 220 237 253 264 215 213 216 212 200 189 191 179 170 158
35 33 24 1 5 9 2 10 347 355 351 330 308 304 300 299 301 246 232 220 225 225 240 261 239 217 218 209 203 197 210 188 172
34 31 13 360 7 18 2 353 5 343 344 319 306 270 265 271 285 282 227 224 209 215 218 242 250 246 219 216 210 200 210 218 197
30 28 19 10 9 8 3 10 336 351 343 309 295 281 260 242 237 256 237 218 205 210 217 207 236 234 223 229 215 216 202 220 227
35 20 11 10 25 10 5 340 9 0 341 308 323 284 245 232 223 223 236 221 211 194 204 214 211 217 218 218 229 226 213 207 224
29 18 12 17 10 11 8 18 356 358 5 19 287 336 326 7 260 225 223 224 222 217 198 213 206 208 209 217 218 222 227 213 214
12 10 9 10 19 12 358 18 31 6 334 11 24 352 332 321 332 11 292 259 208 217 224 221 218 212 208 207 217 215 216 226 219
14 11 6 4 0 11 351 18 360 17 7 331 15 336 234 5 327 323 346 350 359 327 261 225 225 220 216 212 210 210 216 218 222
4 7 359 1 0 355 353 353 347 350 338 334 348 340 302 251 225 288 320 336 332 318 307 304 253 235 227 218 221 211 214 221 223